Weather History for Wink, TX

Change the Weather History Date:

Monday, April 22, 2013

  Actual Average Record
Temperature  
Mean Temperature 72 °F -  
Max Temperature 95 °F 82 °F 100 °F (1965)
Min Temperature 52 °F 52 °F 37 °F (1972)
Cooling Degree Days 8    
Growing Degree Days 22 (Base 50)    
Moisture  
Dew Point 24 °F    
Average Humidity 26    
Maximum Humidity 61    
Minimum Humidity 4    
Precipitation  
Precipitation 0.00 in - - ()
Sea Level Pressure  
Sea Level Pressure 29.76 in    
Wind  
Wind Speed 9 mph (SSE)    
Max Wind Speed 17 mph    
Max Gust Speed 25 mph    
Visibility 10 miles    
Events      
Averages and records for this station are not official NWS values.
T = Trace of Precipitation, MM = Missing Value Source: NWS Daily Summary

Daily Weather History Graph

Daily Weather History Graph

Search for Another Location

Airport:

Trip Planner

Search our weather history database for the weather conditions in past years. The results will help you decide how hot, cold, wet, or windy it might be!

Date:

Astronomy

Apr. 22, 2013 Rise Set
Actual Time 7:16 AM CDT 8:26 PM CDT
Civil Twilight 6:50 AM CDT 8:52 PM CDT
Nautical Twilight 6:20 AM CDT 9:22 PM CDT
Astronomical Twilight 5:49 AM CDT 9:53 PM CDT
Moon 5:28 PM CDT (4/22) 4:59 AM CDT (4/22)
Length of Visible Light 14h 01m
Length of Day
13h 10m
Waxing Gibbous, 88% of the Moon is Illuminated
Apr 22
Waxing Gibbous
Apr 25
Full
May 2
Last Quarter
May 9
New
May 17
First Quarter

Hourly Weather History & Observations

Time (CDT) Temp. Dew Point Humidity Pressure Visibility Wind Dir Wind Speed Gust Speed Precip Events Conditions
12:53 AM 57.9 °F 19.9 °F 23% 29.87 in 10.0 mi SE 9.2 mph - N/A   Clear
1:53 AM 57.0 °F 24.1 °F 28% 29.85 in 10.0 mi ESE 5.8 mph - N/A   Clear
2:53 AM 57.9 °F 32.0 °F 37% 29.82 in 10.0 mi SE 9.2 mph - N/A   Clear
3:53 AM 57.9 °F 37.0 °F 46% 29.81 in 10.0 mi SE 9.2 mph - N/A   Clear
4:53 AM 55.0 °F 37.9 °F 53% 29.81 in 10.0 mi ESE 6.9 mph - N/A   Clear
5:53 AM 52.0 °F 37.9 °F 59% 29.82 in 10.0 mi SSE 6.9 mph - N/A   Clear
6:53 AM 52.0 °F 39.0 °F 61% 29.82 in 10.0 mi ESE 8.1 mph - N/A   Clear
7:53 AM 55.0 °F 41.0 °F 59% 29.84 in 10.0 mi SE 11.5 mph - N/A   Clear
8:53 AM 61.0 °F 46.0 °F 58% 29.87 in 10.0 mi SE 15.0 mph - N/A   Clear
9:53 AM 66.0 °F 46.0 °F 48% 29.87 in 10.0 mi SSE 12.7 mph - N/A   Clear
10:53 AM 73.0 °F 41.0 °F 31% 29.87 in 10.0 mi SSE 8.1 mph - N/A   Clear
11:53 AM 79.0 °F 28.0 °F 15% 29.85 in 10.0 mi Variable 3.5 mph - N/A   Clear
12:53 PM 84.0 °F 21.9 °F 10% 29.82 in 10.0 mi Variable 3.5 mph - N/A   Clear
1:53 PM 88.0 °F 14.0 °F 6% 29.77 in 10.0 mi Variable 4.6 mph - N/A   Clear
2:53 PM 91.9 °F 7.0 °F 4% 29.73 in 10.0 mi WNW 16.1 mph 21.9 mph N/A   Clear
3:53 PM 93.0 °F 8.1 °F 4% 29.68 in 10.0 mi SSW 9.2 mph 25.3 mph N/A   Clear
4:53 PM 93.9 °F 1.9 °F 4% 29.65 in 10.0 mi West 13.8 mph 25.3 mph N/A   Clear
5:53 PM 93.9 °F 3.9 °F 4% 29.63 in 10.0 mi WSW 16.1 mph 24.2 mph N/A   Clear
6:53 PM 93.0 °F 3.0 °F 4% 29.62 in 10.0 mi WSW 17.3 mph 24.2 mph N/A   Clear
7:53 PM 90.0 °F 3.9 °F 4% 29.63 in 10.0 mi WSW 12.7 mph - N/A   Clear
8:53 PM 79.0 °F 8.1 °F 7% 29.65 in 10.0 mi SW 8.1 mph - N/A   Clear
9:53 PM 73.9 °F 8.1 °F 8% 29.66 in 10.0 mi SSW 10.4 mph - N/A   Clear
10:53 PM 75.0 °F 35.1 °F 23% 29.67 in 10.0 mi SE 6.9 mph - N/A   Clear
11:53 PM 69.1 °F 37.9 °F 32% 29.67 in 10.0 mi SE 9.2 mph - N/A   Clear